Location: Boiro
(42.6475°N, 8.8834°W)
Time: 11:53:26
(UTC+01:00)

Tiros 1 - Pass Details

Date: 08 December 2021
Orbit: 630 x 663 km, 48.4° (Epoch: 20 January)

Event Time Altitude Azimuth Distance (km) Brightness Sun altitude
Rises 21:27:18 0° 285° (WNW) 2,928 11.4 -36.9°
Reaches altitude 10° 21:29:44 10° 293° (WNW) 2,024 10.3 -37.4°
Enters shadow 21:30:29 14° 297° (WNW) 1,761 9.9 -37.5°
